Activity Log for Feb, 28 2019

Back to Activity Log Search


Incident Time Nature Address
19F022305 00:11:19 30 TRAFFIC STOP 304XX I 69 NB
19F022306 00:13:46 129 15XX LAKEWOOD DR
19F022307 00:13:54 129 15XX LAKEWOOD DR
19F022308 00:14:04 129 15XX LAKEWOOD DR
19F022309 00:17:03 1 MEET 75XX SOUTHTOWN XING
19F022310 00:46:11 30 TRAFFIC STOP 304XX I 69 NB
19F022311 00:49:26 62 PARTY ARMED 69XX FORTY SEVENTH DR
19F022312 00:55:55 30 TRAFFIC STOP LIMA RD & S MAYFIELD DR
19F022313 01:03:22 30 TRAFFIC STOP BROOK DR & BROOKWARD PASS
19F022314 01:07:46 40A AUDIBLE 65XX BRISTOL RD
19F022315 01:12:08 16,97 7XX BROADWAY
19F022316 01:14:06 30 TRAFFIC STOP BROADWAY & TAYLOR ST
19F022317 01:27:41 46 DOMESTIC 15XX NORTHBROOK BLVD
19F022318 01:37:53 30 TRAFFIC STOP 24XX TRENTMAN AVE
19F022319 01:38:42 30 TRAFFIC STOP REED RD & HEATHERWIND DR
19F022320 01:41:52 44LM 9XX EDGEWATER AVE
19F022321 01:47:52 48,36 28XX E STATE BLVD
19F022322 01:48:03 113 SHOTS FIRED 74XX HICKORY CREEK DR
19F022323 01:55:11 43 DISTURBANCE 47XX NORTHCREST DR
19F022324 02:05:25 48 SUSPICIOUS 22XX SMITH ST
19F022325 02:07:18 108 FOLLOWUP 37XX MULBERRY RD
19F022326 02:08:54 30 TRAFFIC STOP MAPLECREST RD & LAKE AVE
19F022328 02:19:28 40A AUDIBLE 62XX STELLHORN RD
19F022327 02:19:36 66 MENTALLY ILL 49XX FAIRINGTON DR
19F022329 02:21:20 48,36 21XX SHADY BROOK DR
19F022330 02:38:35 33,34 E CREIGHTON AVE & S HANNA ST
19F022331 02:42:34 48 SUSPICIOUS 14XX FARWOOD AVE
19F022332 02:46:18 25 PD ACCIDENT 31XX SOUTHWAYNE AVE
19F022333 02:53:58 30 TRAFFIC STOP 16XX GOSHEN AVE
19F022334 02:55:08 46,96 109XX LA CABREAH LN
19F022335 03:04:51 30 TRAFFIC STOP VANCE AVE & REED RD
19F022336 03:13:38 96IP 47XX NORTHCREST DR
19F022337 03:38:34 27 RECKLESS DRI W RUDISILL BLVD & SOUTHWAYNE AVE
19F022338 03:42:31 911 HANG UP 33XX E STATE BLVD
19F022339 03:44:01 EMS 11XX COLLEGE ST
19F022340 03:54:20 66 MENTALLY ILL 61XX BUNT DR
19F022341 04:10:15 48 SUSPICIOUS 61XX RIDGEMONT DR
19F022345 04:40:55 66 MENTALLY ILL 49XX FAIRINGTON DR
19F022342 04:42:10 40A AUDIBLE 4XX TROON WAY
19F022343 04:42:51 129 19XX CRESCENT AVE
19F022344 04:43:12 129 46XX PARKERDALE DR
19F022346 04:53:21 66 MENTALLY ILL 6XX E DEWALD ST
19F022347 05:11:43 30 TRAFFIC STOP LIMA RD & W WASHINGTON CENTER RD
19F022348 05:42:49 30 TRAFFIC STOP W WASHINGTON CENTER RD & HIGHVIEW
19F022350 05:59:39 48 SUSPICIOUS 36XX HOLTON AVE
19F022349 06:00:01 30 TRAFFIC STOP 20XX I 469 SB
19F022351 06:04:22 48,36 E COLISEUM BLVD & PARNELL AVE
19F022353 06:05:36 40A AUDIBLE 40XX PIPER DR
19F022352 06:05:52 33,34 S ANTHONY BLVD & E WASHINGTON BLVD
19F022354 06:06:40 75 PURSUIT I 469 AND US 24
19F022355 06:10:05 26 PI ACCIDENT E SR 930 & WERLING RD
19F022356 06:13:02 22RN RUNAWAY 59XX BUNT DR
19F022357 06:23:36 48,36 68XX S ANTHONY BLVD
19F022358 06:29:08 30 TRAFFIC STOP E SR 930 & HARTZELL RD
19F022359 06:30:15 40A AUDIBLE 22XX WAYNE TRACE
19F022361 06:36:52 25 PD ACCIDENT HOBSON RD & E COLISEUM BLVD
19F022360 06:36:55 37 PARKING VIOL IRENE AVE & GOSHEN AVE
19F022362 06:39:05 23,35 VAND VEH 31XX REED ST
19F022363 06:42:37 41 MAN DOWN 12XX HIGH ST
19F022364 06:57:58 30 TRAFFIC STOP NEW HAVEN AVE & MEYER RD
19F022365 07:00:30 8XX COLUMBIA AVE
19F022366 07:07:48 911 HANG UP 39XX W FERGUSON RD
19F022371 07:09:27 51 THEFT 31XX SMITH ST
19F022374 07:11:50 18 WORK TRAFFIC W CREIGHTON AVE & HOAGLAND AVE
19F022373 07:12:53 18 WORK TRAFFIC E STATE BLVD & LAVERNE AVE
19F022367 07:13:23 40XX PARNELL AVE
19F022372 07:13:50 18 WORK TRAFFIC TRIER RD & FERNBANK DR
19F022368 07:14:32 66 MENTALLY ILL 49XX FAIRINGTON DR
19F022369 07:24:08 48 SUSPICIOUS 11XX BARTHOLD ST
19F022370 07:27:54 30 TRAFFIC STOP S COLISEUM BLVD & NEW HAVEN AVE
19F022375 07:43:36 48,36 REED RD & HEATHERWIND DR
19F022376 07:45:03 29 SPECIAL ASGN 49XX VANCE AVE
19F022377 07:46:32 33 DISABLED VEH 7XX I 469 SB
19F022378 07:46:56 40P PANIC ALARM 81XX AMHERST DR
19F022379 07:51:14 30 TRAFFIC STOP COLDWATER RD & E WASHINGTON CENTER
19F022380 07:53:11 25 PD ACCIDENT I 69 AND JEFFERSON BLVD
19F022381 07:55:40 48 SUSPICIOUS 15XX E BERRY ST
19F022382 08:00:19 17 MOTOR CHECK 29XX REYNOLDS ST
19F022383 08:06:57 25HS HIT SKIP 16XX CASS ST
19F022384 08:13:27 40A AUDIBLE 58XX ABBOTT ST
19F022385 08:15:11 103 UNWANTED 27XX W WASHINGTON CENTER RD LOT 36
19F022386 08:17:43 14S SERVING WAR 32XX QUEEN ST
19F022387 08:22:51 46,96 13XX GREENE ST
19F022389 08:27:18 48,35 6XX HUFFMAN ST
19F022388 08:27:41 41 MAN DOWN 56XX GAYWOOD DR
19F022390 08:34:57 30 TRAFFIC STOP W FOSTER PKWY & OLD MILL RD
19F022392 08:36:43 11C CAGE CAR XX E MAIN ST
19F022422 08:38:16 51 THEFT 6XX MADISON ST
19F022393 08:48:20 30 TRAFFIC STOP LIMA RD & EDGEWOOD AVE
19F022394 08:50:42 22I JUV INVEST 74XX BLUFFTON RD
19F022395 08:54:31 30 TRAFFIC STOP N CLINTON ST & PENN AVE
19F022396 08:55:27 30 TRAFFIC STOP 32XX QUEEN ST
19F022397 08:57:01 40A AUDIBLE 74XX SUNDERLAND DR
19F022398 09:03:48 129 66XX CAMBERWELL CT
19F022399 09:04:07 25HS HIT SKIP COVINGTON RD & MEDITERRA LN
19F022400 09:11:41 40A AUDIBLE 18XX W FOURTH ST
19F022402 09:12:23 30 TRAFFIC STOP ENGLE RD & SMITH RD
19F022401 09:15:53 48,36 46XX BRIDGETOWN CT
19F022403 09:18:49 30 TRAFFIC STOP LIMA RD & EDGEWOOD AVE
19F022404 09:22:46 30 TRAFFIC STOP E TILLMAN RD & N PHOENIX PKWY
19F022405 09:24:35 30 TRAFFIC STOP N CLINTON ST & CATHERINE AVE
19F022408 09:25:08 63 CONTACT 44XX WILMETTE ST
19F022407 09:27:17 129 19XX N CLINTON ST
19F022411 09:32:20 43 DISTURBANCE 17XX E TILLMAN RD
19F022409 09:32:40 911 HANG UP 48XX WOODMARK CT
19F022410 09:33:09 22I JUV INVEST 12XX E WASHINGTON CENTER RD
19F022412 09:36:04 911 HANG UP 60XX ST JOE CENTER RD
19F022413 09:39:18 30 TRAFFIC STOP E STATE BLVD & N CLINTON ST
19F022414 09:41:15 51 THEFT 56XX ROBIN RUN
19F022415 09:42:28 14S SERVING WAR 21XX EBY AVE
19F022417 09:42:47 24 MISSING PERS 65XX COVINGTON RD
19F022416 09:43:21 63Z ZACH CHECK 15XX SEDDLEMEYER AVE
19F022418 09:46:03 16,97 24XX FAIRFIELD AVE
19F022420 09:47:44 22I JUV INVEST 72XX E STATE BLVD
19F022419 09:48:13 30 TRAFFIC STOP N CLINTON ST & CATHERINE AVE
19F022421 09:49:16 30 TRAFFIC STOP 19XX EMBASSY DR
19F022423 09:50:09 63Z ZACH CHECK 19XX ST JOSEPH BLVD
19F022424 09:52:56 48 SUSPICIOUS 21XX ONTARIO ST
19F022425 09:55:42 30 TRAFFIC STOP LIMA RD & EDGEWOOD AVE
19F022426 09:55:59 22I JUV INVEST 10XX E COOK RD
19F022427 10:00:30 129 38XX S CALHOUN ST
19F022429 10:01:37 43 DISTURBANCE 10XX FAYETTE DR
19F022430 10:05:48 43 DISTURBANCE XX E MAIN ST
19F022431 10:06:41 22I JUV INVEST 36XX S CALHOUN ST
19F022432 10:08:38 30 TRAFFIC STOP COLUMBIA AVE & ST JOSEPH BLVD
19F022433 10:13:24 66V MENTAL VIOL 11XX HUFFMAN ST
19F022434 10:27:46 25 PD ACCIDENT 62XX E STATE BLVD
19F022435 10:29:20 25 PD ACCIDENT I 69 302 SB ON RAMP & W JEFFERSON
19F022436 10:35:29 43 DISTURBANCE 35XX TAYLOR ST
19F022438 10:39:09 17 MOTOR CHECK 14XX WELLS ST
19F022437 10:39:15 103 UNWANTED 9XX LIBRARY PLAZA
19F022439 10:43:51 25 PD ACCIDENT DALMAN AVE & S LAFAYETTE ST
19F022440 10:46:04 40P PANIC ALARM 32XX CEDAR RUN
19F022441 10:50:02 33 DISABLED VEH COLLEGE ST & JONES ST
19F022445 10:56:28 16,97 43XX E PAULDING RD
19F022442 10:58:05 17 MOTOR CHECK 54XX S HANNA ST
19F022443 11:02:59 108 FOLLOWUP 31XX SMITH ST
19F022448 11:06:52 27 RECKLESS DRI GOSHEN RD & W COLISEUM BLVD
19F022444 11:07:01 29 SPECIAL ASGN 79XX DECATUR RD
19F022450 11:07:48 17 MOTOR CHECK 7XX WAGNER ST
19F022447 11:07:49 50,ATTEMPTED 23XX SOUTHWAY DR
19F022446 11:08:00 25 PD ACCIDENT E DUPONT RD & PARKVIEW PLAZA DR
19F022449 11:11:09 108 FOLLOWUP XX E MAIN ST
19F022451 11:20:21 11C CAGE CAR 53XX COLDWATER RD
19F022453 11:23:30 40A AUDIBLE 3XX W TABER ST
19F022452 11:23:46 25HS HIT SKIP E DUPONT RD & PARKVIEW PLAZA DR
19F022456 11:29:25 96JO 75XX COLD SPRINGS BLVD
19F022455 11:29:46 34 TRAFF HAZARD 23XX S HANNA ST
19F022454 11:30:35 129 45XX IMPERIAL PARK DR
19F022457 11:35:06 51 THEFT 27XX CHARLOTTE AVE
19F022459 11:38:37 65T SUICIDE THR 46XX W JEFFERSON BLVD
19F022458 11:39:26 48,35 35XX W COLISEUM BLVD
19F022460 11:40:59 22N CHILD NEGLE 42XX VANCE AVE
19F022461 11:42:51 48,36 37XX N CLINTON ST
19F022463 11:48:59 50 BURGLARY 75XX S ANTHONY BLVD
19F022462 11:51:31 38 LOST/STOLEN 8XX E COLISEUM BLVD
19F022464 11:55:10 66 MENTALLY ILL 22XX MAUMEE AVE
19F022467 11:56:28 51 THEFT 108XX LA CABREAH LN
19F022465 11:58:56 103 UNWANTED 22XX LOWER HUNTINGTON RD
19F022466 12:01:32 108 FOLLOWUP 16XX ROSEMONT DR
19F022474 12:11:37 63 CONTACT 65XX MAYWOOD CIR
19F022469 12:11:38 41 MAN DOWN 18XX BLUFFTON RD
19F022468 12:11:54 48 SUSPICIOUS 2XX W WASHINGTON BLVD
19F022472 12:14:10 48 SUSPICIOUS 63XX W JEFFERSON BLVD
19F022470 12:20:24 17 MOTOR CHECK 44XX TAMARACK DR
19F022471 12:25:45 129 39XX MCKINNIE AVE
19F022473 12:31:18 30 TRAFFIC STOP 43XX S ANTHONY BLVD
19F022475 12:34:04 41,36 48XX WARSAW ST
19F022476 12:39:29 911 HANG UP 17XX MAGNAVOX WAY
19F022480 12:40:11 43 DISTURBANCE 70XX BLUFFTON RD
19F022478 12:40:12 63 CONTACT 12XX ELMWOOD AVE
19F022477 12:40:53 17 MOTOR CHECK 38XX NEWPORT AVE UNIT 13
19F022479 12:42:14 65T SUICIDE THR 31XX BROADWAY
19F022501 12:44:09 1 MEET 3XX W EL DORADO TRL
19F022481 12:44:19 911 HANG UP 44XX S ANTHONY BLVD
19F022482 12:46:28 25 PD ACCIDENT 8XX WESLEY CT
19F022497 12:50:59 24 MISSING PERS 65XX MAYWOOD CIR
19F022483 12:51:33 30 TRAFFIC STOP 12XX E CALIFORNIA RD
19F022486 12:52:30 103 UNWANTED 13XX HANCOCK AVE
19F022484 12:52:48 63Z ZACH CHECK 15XX SEDDLEMEYER AVE
19F022485 12:54:32 129 4XX WELLS ST
19F022488 12:58:00 EMS 49XX LIMA RD
19F022487 13:00:01 40A AUDIBLE 94XX KILDARE XING
19F022491 13:03:32 40A AUDIBLE 4XX E DEWALD ST
19F022489 13:04:18 96 BATTERY 35XX TAYLOR ST
19F022490 13:04:44 129 4XX W OAKDALE DR
19F022492 13:07:43 46 DOMESTIC 57XX KELSO LN
19F022493 13:09:24 30 TRAFFIC STOP E RUDISILL BLVD & S ANTHONY BLVD
19F022494 13:12:30 63 CONTACT AIRPORT EXPRESSWAY & BLUFFTON RD
19F022496 13:15:24 129 41XX INDIANA AVE
19F022500 13:15:53 63 CONTACT 9XX E WASHINGTON BLVD
19F022498 13:16:12 40 ALARM 41XX LIMA RD
19F022499 13:17:08 16,97 3XX W CREIGHTON AVE
19F022514 13:28:50 17 MOTOR CHECK 22XX HENSCH ST
19F022502 13:30:55 129 117XX EAGLE LAKE CT
19F022503 13:37:58 30 TRAFFIC STOP E LEWIS ST & S CLINTON ST
19F022504 13:42:13 40A AUDIBLE 45XX BOWSER AVE
19F022513 13:45:49 102,TX THREATS 53XX GOSHEN RD LOT 92
19F022505 13:50:48 111D DOG LASSELLE ST & S LAFAYETTE ST
19F022506 13:53:33 129 GOODRICH RD & BLAKE DR
19F022512 13:53:46 65T SUICIDE THR 19XX W STATE BLVD
19F022507 13:53:56 33,34 58XX E TILLMAN RD
19F022509 13:56:27 37 PARKING VIOL BURNS BLVD & S CALHOUN ST
19F022508 13:57:02 51,35 53XX GOSHEN RD LOT 72
19F022510 13:57:06 50JO 12XX STOPHLET ST
19F022515 14:01:06 40A AUDIBLE 62XX W JEFFERSON BLVD
19F022511 14:02:09 129 42XX BELLO DR
19F022516 14:10:56 103 UNWANTED 9XX ELMER AVE LOT 10
19F022517 14:13:03 30 TRAFFIC STOP ILLINOIS RD & AVENUE OF AUTOS
19F022525 14:17:49 18 WORK TRAFFIC E STATE BLVD & ALABAMA AVE
19F022533 14:18:31 18 WORK TRAFFIC W WASHINGTON BLVD & ROCKHILL ST
19F022518 14:19:04 51,35 53XX GOSHEN RD
19F022520 14:19:06 48 SUSPICIOUS S CALHOUN ST & E PONTIAC ST
19F022528 14:19:11 18 WORK TRAFFIC WELLS ST & THIRD ST
19F022519 14:20:19 17 MOTOR CHECK 27XX E STATE BLVD
19F022526 14:20:44 18 WORK TRAFFIC TRIER RD & FERNBANK DR
19F022522 14:21:28 65T SUICIDE THR 43XX PLAZA DR
19F022521 14:21:41 22I JUV INVEST 12XX E WASHINGTON CENTER RD
19F022524 14:28:51 40P PANIC ALARM 5XX HUFFMAN ST
19F022523 14:29:02 129 56XX HOPKINTON DR
19F022527 14:37:35 40A AUDIBLE 23XX LADUE LN
19F022529 14:40:53 103 UNWANTED 31XX E STATE BLVD
19F022530 14:40:57 25 PD ACCIDENT 31XX N CLINTON ST
19F022531 14:43:02 34 TRAFF HAZARD 46XX S LAFAYETTE ST
19F022535 14:50:49 25HS HIT SKIP 1XX W COLISEUM BLVD
19F022534 14:51:42 14 WARRANT 14XX W WASHINGTON CENTER RD
19F022536 14:52:17 46 DOMESTIC 55XX FAIRFIELD AVE
19F022537 14:54:08 30 TRAFFIC STOP FAIRFIELD AVE & W CREIGHTON AVE
19F022538 14:55:54 129 45XX WINDING WAY DR
19F022540 15:01:29 43 DISTURBANCE 24XX FAIRFIELD AVE
19F022539 15:01:39 129 10XX VALDOSTA DR
19F022542 15:07:15 65T SUICIDE THR 17XX CORTLAND AVE
19F022541 15:07:29 46 DOMESTIC 71XX LAMONT DR
19F022543 15:10:11 25 PD ACCIDENT W PAULDING RD & MCCLELLAN ST
19F022544 15:11:20 129 42XX OAKHURST DR
19F022545 15:14:28 25 PD ACCIDENT COVENTRY LN & W JEFFERSON BLVD
19F022546 15:17:59 129 65XX FERNWOOD AVE
19F022547 15:18:25 129 28XX WINDPUMP RD
19F022548 15:19:52 25HS HIT SKIP 49XX BLUFFTON RD
19F022550 15:19:57 25 PD ACCIDENT N CLINTON ST & E COLISEUM BLVD
19F022549 15:21:02 51 THEFT 43XX PLAZA DR
19F022551 15:22:43 25 PD ACCIDENT 33XX HOAGLAND AVE
19F022552 15:36:24 30 TRAFFIC STOP W DUPONT RD & RADBOURNE DR
19F022553 15:44:08 96 BATTERY 79XX SERENITY DR
19F022560 15:49:59 63 CONTACT 14XX AVALON CT
19F022554 15:54:55 30 TRAFFIC STOP ST JOE RD & DEAN DR
19F022555 15:56:12 129 112XX DELL LOCH WAY
19F022556 15:56:41 129 112XX DELL LOCH WAY
19F022557 15:57:12 30 TRAFFIC STOP RIVERMET AVE & TECUMSEH ST
19F022558 16:00:05 63 CONTACT S COLISEUM BLVD AND E WASHINGTON B
19F022559 16:01:41 37 PARKING VIOL WEBSTER ST & W WILLIAMS ST
19F022561 16:05:04 15 ASSIST E STATE BLVD & SPY RUN AVE
19F022562 16:06:07 40A AUDIBLE 25XX SHERMAN BLVD
19F022563 16:12:27 22I JUV INVEST 23XX S CLINTON ST
19F022570 16:13:46 15,85 ASST AT O 19XX OAKLAND ST
19F022564 16:15:01 129 120XX THORNAPPLE CV
19F022567 16:15:12 911 HANG UP 21XX LAKE AVE
19F022565 16:15:37 129 108XX E ROSEWOOD CIR
19F022566 16:15:54 103 UNWANTED 14XX MEDICAL PARK DR
19F022574 16:18:36 27 RECKLESS DRI ENGLE RD & W JEFFERSON BLVD
19F022569 16:19:19 96 BATTERY 79XX W JEFFERSON BLVD
19F022568 16:20:17 43 DISTURBANCE 6XX E DEWALD ST
19F022576 16:25:33 911 HANG UP 63XX CONSTITUTION DR
19F022571 16:26:52 33,34 FAIRFIELD AVE & W CREIGHTON AVE
19F022572 16:27:42 30 TRAFFIC STOP 3XX BRANDRIFF ST
19F022573 16:28:48 43 DISTURBANCE 10XX S CLINTON ST
19F022575 16:32:24 25 PD ACCIDENT S ANTHONY BLVD & NIAGARA DR
19F022577 16:38:13 51 THEFT XX E MAIN ST
19F022578 16:40:05 35 PARKED VEHIC 22XX S HARRISON ST
19F022580 16:40:27 65T SUICIDE THR 11XX HUFFMAN ST
19F022579 16:41:55 80 CIVIL INVEST 7XX W COLISEUM BLVD
19F022581 16:42:29 33,34 ILLINOIS RD & S SCOTT RD
19F022582 16:43:07 37 PARKING VIOL 4XX W WILLIAMS ST
19F022583 16:43:18 30 TRAFFIC STOP NORTHLAND BLVD & LIMA RD
19F022584 16:46:19 1 MEET 5XX E COLISEUM BLVD
19F022585 16:48:27 EMS 36XX MCARTHUR DR LOT 35
19F022586 16:48:39 46,96 11XX W STATE BLVD
19F022587 16:49:45 25 PD ACCIDENT EUCLID AVE & MCKEE ST
19F022590 16:50:12 66V MENTAL VIOL 66XX WOOD RIM RUN
19F022588 16:50:39 103 UNWANTED 39XX S CALHOUN ST
19F022589 16:53:38 108 FOLLOWUP 27XX NORTHHIGHLANDS BLVD
19F022591 16:55:05 51IP NEW HAVEN AVE & S COLISEUM BLVD
19F022592 16:56:03 129 BROADWAY & WILT ST
19F022593 16:56:25 129 94XX BLUE MOUND DR
19F022594 16:56:42 129 XX E MAIN ST
19F022595 16:57:34 46,96 33XX W COLISEUM BLVD
19F022596 17:00:26 30 TRAFFIC STOP E LEWIS ST & FRANCIS ST
19F022597 17:00:33 27 RECKLESS DRI MAPLECREST RD & STELLHORN RD
19F022598 17:02:57 30 TRAFFIC STOP S HARRISON ST & W MASTERSON AVE
19F022600 17:05:10 55 FIGHT 42XX COLDWATER RD
19F022599 17:05:38 40P PANIC ALARM 39XX KRAFT PKWY STE D
19F022603 17:13:27 63 CONTACT W JEFFERSON BLVD & COLLEGE ST
19F022602 17:13:49 25 PD ACCIDENT E STATE BLVD & MAPLECREST RD
19F022601 17:13:53 30 TRAFFIC STOP S HARRISON ST & W PONTIAC ST
19F022616 17:15:12 16,97 9XX LIBRARY PLAZA
19F022604 17:16:18 22I JUV INVEST 17XX BEACON ST
19F022606 17:17:29 33,34 HOBSON RD & E COLISEUM BLVD
19F022605 17:18:15 22RN RUNAWAY 18XX BEACON ST
19F022607 17:19:26 30 TRAFFIC STOP W PONTIAC ST & HOAGLAND AVE
19F022608 17:22:23 37 PARKING VIOL 9XX W DEWALD ST
19F022609 17:22:32 37 PARKING VIOL 9XX W DEWALD ST
19F022611 17:25:07 34 TRAFF HAZARD BROADWAY & W JEFFERSON BLVD
19F022610 17:25:47 38 LOST/STOLEN 29XX CANTERBURY BLVD
19F022612 17:27:00 42 INTOX PERSON 11XX BROADWAY
19F022613 17:29:17 63 CONTACT 21XX HENSCH ST
19F022614 17:33:58 33,34 MAPLECREST RD & TRIER RD
19F022615 17:35:30 103 UNWANTED 55XX COLDWATER RD
19F022626 17:37:19 25HS HIT SKIP 28XX SHADY HOLLOW PL
19F022617 17:38:17 46,62 8XX MILTON ST
19F022618 17:41:12 40A AUDIBLE 14XX GLENWOOD AVE
19F022619 17:41:36 102,TX THREATS XX E MAIN ST
19F022620 17:41:56 43 DISTURBANCE 12XX W STATE BLVD
19F022621 17:46:48 102 THREATS E RUDISILL BLVD & SMITH ST
19F022622 17:49:12 103 UNWANTED 13XX HANCOCK AVE
19F022623 17:52:55 30 TRAFFIC STOP LIMA RD & NORTHLAND BLVD
19F022624 18:01:09 51JO 41XX N CLINTON ST
19F022627 18:04:26 47 REMOVE ITEMS 77XX WISHINGWELL CT
19F022625 18:07:06 51 THEFT 11XX SINCLAIR ST
19F022628 18:07:50 66 MENTALLY ILL 18XX LINDENWOOD AVE
19F022631 18:12:58 22I JUV INVEST 29XX WESTBROOK DR UNIT B215
19F022629 18:15:46 17 MOTOR CHECK XX E MAIN ST
19F022630 18:24:56 40P PANIC ALARM 2XX SOUTHRIDGE RD
19F022632 18:28:08 46,96 51XX S HANNA ST
19F022633 18:32:53 30 TRAFFIC STOP FAIRFIELD AVE & W JEFFERSON BLVD
19F022635 18:35:34 911 HANG UP 42XX BLUFFTON RD
19F022634 18:36:09 33,34 ST JOE RD & ST JOE CENTER RD
19F022637 18:38:20 39R STOLEN RECO 45XX REED ST
19F022636 18:41:03 108 FOLLOWUP 76XX PATRIOT XING
19F022639 18:44:58 48 SUSPICIOUS 4XX E PAULDING RD
19F022638 18:46:56 113 SHOTS FIRED 4XX GREENWOOD AVE
19F022647 18:52:44 39 STOLEN VEHIC 77XX SUNNY LN
19F022640 19:05:02 41 MAN DOWN 61XX STELLHORN RD
19F022641 19:13:27 65T SUICIDE THR 10XX OAKLAWN CT
19F022643 19:14:37 66 MENTALLY ILL 100XX NORTHBROOK VALLEY DR
19F022644 19:15:58 63 CONTACT 39XX NEWPORT AVE
19F022642 19:16:16 51 THEFT 6XX WALNUT ST
19F022645 19:20:57 51JO 12XX E CREIGHTON AVE
19F022646 19:23:48 46,96 26XX FREEMAN ST
19F022648 19:31:32 33,34 MEYER RD & E WASHINGTON BLVD
19F022649 19:31:36 43 DISTURBANCE 3XX LEXINGTON AVE
19F022650 19:36:12 14S SERVING WAR 44XX OLIVER ST
19F022651 19:37:19 103 UNWANTED 14XX BAXTER ST
19F022652 19:37:50 66V MENTAL VIOL 37XX GOEGLEIN RD
19F022653 19:39:52 14S SERVING WAR MCKINNIE AVE & REED ST
19F022654 19:46:41 48 SUSPICIOUS W WASHINGTON CENTER RD & CROSS CRE
19F022655 19:47:08 48,36 56XX HIGHVIEW DR
19F022656 20:09:47 37 PARKING VIOL 16XX BARTHOLD ST
19F022657 20:14:48 20 PROBLEM UNK REED RD & ST JOE CENTER RD
19F022658 20:16:39 43 DISTURBANCE 10XX PRODUCTION RD
19F022660 20:27:38 25HS HIT SKIP 51XX TYRONE RD
19F022661 20:31:01 40A AUDIBLE 49XX ILLINOIS RD
19F022659 20:32:07 22I JUV INVEST 68XX AUTUMN CHASE DR
19F022662 20:34:25 30 TRAFFIC STOP FAIRFIELD AVE & W JEFFERSON BLVD
19F022663 20:39:16 41 MAN DOWN EWING ST & W SUPERIOR ST
19F022664 20:40:15 96JO 9XX S THOMAS RD
19F022673 20:40:22 11C CAGE CAR 14XX APPLE GLEN BLVD
19F022665 20:49:38 43 DISTURBANCE 11XX W MAIN ST
19F022666 20:50:48 48 SUSPICIOUS 9XX E WASHINGTON BLVD
19F022667 20:52:46 30 TRAFFIC STOP W WASHINGTON BLVD & FAIRFIELD AVE
19F022668 21:00:16 48,36 22XX INDIAN VILLAGE BLVD
19F022669 21:02:10 48 SUSPICIOUS 66XX BLUFFTON RD
19F022670 21:03:56 30 TRAFFIC STOP DELRAY DR & VANCE AVE
19F022671 21:06:05 40H HOLDUP ALRM 57XX S ANTHONY BLVD
19F022672 21:06:52 15 ASSIST PROSPECT AVE & SPY RUN AVE
19F022674 21:18:20 25 PD ACCIDENT LAVERNE AVE & NEVADA AVE
19F022675 21:21:42 41 MAN DOWN 45XX BOWSER AVE
19F022676 21:22:19 44 NUISANCE 61XX STELLHORN RD
19F022677 21:27:47 30 TRAFFIC STOP ST JOE CENTER RD & SALGE DR
19F022678 21:33:15 30 TRAFFIC STOP FAIRFIELD AVE & WALNUT ST
19F022679 21:34:10 26 PI ACCIDENT LOWER HUNTINGTON RD & OLD TRAIL RD
19F022680 21:48:00 40 ALARM 25XX GOSHEN RD
19F022681 21:49:19 43 DISTURBANCE 6XX E DEWALD ST
19F022682 21:51:35 22I JUV INVEST ENGLE RD & BLUFFTON RD
19F022684 21:55:53 46,96 35XX RAYMOND ST
19F022683 21:57:55 46 DOMESTIC 12XX BURGESS ST
19F022685 22:01:10 30 TRAFFIC STOP 7XX E COLISEUM BLVD
19F022686 22:03:54 63 CONTACT 27XX GREENVIEW AVE
19F022687 22:07:03 911 HANG UP 10XX N COLISEUM BLVD
19F022688 22:13:48 48,36 73XX E KENSINGTON DR
19F022689 22:18:40 30 TRAFFIC STOP COLDWATER RD & E FERNHILL AVE
19F022690 22:21:12 46,96 25XX RIVER COVE TRL
19F022691 22:24:12 129 106XX ALDERWOOD LN
19F022692 22:24:32 129 106XX ALDERWOOD LN
19F022693 22:25:24 46 DOMESTIC 27XX GREENVIEW AVE
19F022695 22:25:37 911 HANG UP 49XX KYLE RD
19F022694 22:27:35 40 ALARM 32XX WELLS ST
19F022696 22:29:06 48 SUSPICIOUS 26XX HOAGLAND AVE
19F022697 22:34:35 30 TRAFFIC STOP COLDWATER RD & E ESSEX LN
19F022698 22:35:53 30 TRAFFIC STOP BROADWAY & SCOTT AVE
19F022699 22:37:28 129 58XX S ANTHONY BLVD
19F022700 22:37:47 129 58XX S ANTHONY BLVD
19F022701 22:38:10 129 17XX E PAULDING RD
19F022702 22:39:39 33,34 VAN BUREN ST & W MAIN ST
19F022703 22:39:44 129 53XX REBECCA ST
19F022704 22:39:54 129 79XX HARRISBURG LN
19F022705 22:40:19 30 TRAFFIC STOP 46XX LIMA RD
19F022706 22:42:38 911 HANG UP 23XX BOWSER AVE
19F022707 22:56:40 33,34 REED RD & ST JOE CENTER RD
19F022708 23:03:32 911 HANG UP 49XX KYLE RD
19F022710 23:09:46 30 TRAFFIC STOP GOSHEN AVE & RUSSELL AVE
19F022711 23:09:46 40A AUDIBLE 28XX LOFTY DR
19F022712 23:12:42 30 TRAFFIC STOP 56XX S ANTHONY BLVD
19F022709 23:13:39 63 CONTACT 28XX LYKEWAY CT
19F022713 23:21:03 30 TRAFFIC STOP SHERMAN BLVD & W FOURTH ST
19F022714 23:23:23 46 DOMESTIC 3XX E WASHINGTON BLVD
19F022715 23:26:47 48,36 33XX W COLISEUM BLVD
19F022716 23:27:59 40A AUDIBLE 17XX MAGNAVOX WAY
19F022719 23:36:36 65T SUICIDE THR 9XX LINCOLN AVE
19F022717 23:37:20 129 18XX LIMA LN
19F022718 23:37:34 129 18XX LIMA LN
19F022720 23:40:08 113 SHOTS FIRED 4XX FRENCH AVE
19F022721 23:46:38 30 TRAFFIC STOP W COLISEUM BLVD & GOSHEN RD
19F022723 23:48:27 33,34 S COLISEUM BLVD AND E WASHINGTON B
19F022722 23:50:30 911 HANG UP 40XX SMITH ST
19F022724 23:55:12 48 SUSPICIOUS 93XX MORNING LIGHT TRL APT 106
19F022725 23:57:38 43 DISTURBANCE 15XX GOSHEN AVE